Time,TemperatureF,DewpointF,PressureIn,WindDirection,WindDirectionDegrees,WindSpeedMPH,WindSpeedGustMPH,Humidity,HourlyPrecipIn,Conditions,Clouds,dailyrainin,SoftwareType,DateUTC
2013-10-10 00:03:00,66.2,58.8,30.08,ESE,121,6.9,6.9,77,0.00,RA,,0.00,WeatherDisplay:10.37,2013-10-09 22:03:00,
2013-10-10 00:08:00,66.3,58.5,30.08,East,91,9.2,9.2,76,0.00,RA,,0.00,WeatherDisplay:10.37,2013-10-09 22:08:00,
2013-10-10 00:13:00,66.3,58.5,30.08,East,95,7.0,7.0,76,0.00,FEW,,0.00,WeatherDisplay:10.37,2013-10-09 22:13:00,
2013-10-10 00:18:00,66.4,58.6,30.08,East,80,7.0,7.0,76,0.00,FEW,,0.00,WeatherDisplay:10.37,2013-10-09 22:18:00,
2013-10-10 00:23:00,66.4,58.6,30.08,East,100,8.1,8.1,76,0.00,FEW,,0.00,WeatherDisplay:10.37,2013-10-09 22:23:00,
2013-10-10 00:28:00,66.3,58.5,30.08,ENE,77,6.9,6.9,76,0.00,FEW,,0.00,WeatherDisplay:10.37,2013-10-09 22:28:00,
2013-10-10 00:33:00,66.1,58.7,30.08,East,98,5.8,5.8,77,0.00,FEW,,0.00,WeatherDisplay:10.37,2013-10-09 22:33:00,
2013-10-10 00:38:00,66.1,58.7,30.08,East,82,9.2,9.2,77,0.00,FEW,,0.00,WeatherDisplay:10.37,2013-10-09 22:38:00,
2013-10-10 00:43:00,66.1,58.7,30.08,ESE,110,7.0,7.0,77,0.00,FEW,,0.00,WeatherDisplay:10.37,2013-10-09 22:43:00,
2013-10-10 00:48:00,66.2,58.8,30.08,ESE,107,5.8,5.8,77,0.00,FEW,,0.00,WeatherDisplay:10.37,2013-10-09 22:48:00,
2013-10-10 00:53:00,66.2,58.8,30.08,ESE,102,7.0,7.0,77,0.00,FEW,,0.00,WeatherDisplay:10.37,2013-10-09 22:53:00,
2013-10-10 00:58:00,66.1,58.7,30.08,East,93,6.0,6.0,77,0.00,FEW,,0.00,WeatherDisplay:10.37,2013-10-09 22:58:00,
2013-10-10 01:03:00,66.0,58.9,30.08,East,87,9.0,9.0,78,0.00,FEW,,0.00,WeatherDisplay:10.37,2013-10-09 23:03:00,
2013-10-10 01:08:00,66.1,59.0,30.08,East,95,5.8,5.8,78,0.00,FEW,,0.00,WeatherDisplay:10.37,2013-10-09 23:08:00,
2013-10-10 01:13:00,66.1,59.0,30.08,East,92,6.0,6.0,78,0.00,FEW,,0.00,WeatherDisplay:10.37,2013-10-09 23:13:00,
2013-10-10 01:18:00,66.1,59.0,30.08,ENE,68,5.8,5.8,78,0.00,FEW,,0.00,WeatherDisplay:10.37,2013-10-09 23:18:00,
2013-10-10 01:23:00,66.1,59.0,30.08,ESE,102,4.6,4.6,78,0.00,FEW,,0.00,WeatherDisplay:10.37,2013-10-09 23:23:00,
2013-10-10 01:28:00,66.2,58.8,30.08,ESE,116,4.6,4.6,77,0.00,FEW,,0.00,WeatherDisplay:10.37,2013-10-09 23:28:00,
2013-10-10 01:33:00,66.1,58.7,30.08,ESE,119,5.8,5.8,77,0.00,FEW,,0.00,WeatherDisplay:10.37,2013-10-09 23:33:00,
2013-10-10 01:38:00,66.2,58.8,30.08,ESE,103,6.9,6.9,77,0.00,FEW,,0.00,WeatherDisplay:10.37,2013-10-09 23:38:00,
2013-10-10 01:43:00,66.3,58.9,30.08,East,93,6.9,6.9,77,0.00,FEW,,0.00,WeatherDisplay:10.37,2013-10-09 23:43:00,
2013-10-10 01:48:00,66.3,58.9,30.08,ESE,115,6.9,6.9,77,0.00,FEW,,0.00,WeatherDisplay:10.37,2013-10-09 23:48:00,
2013-10-10 01:53:00,66.3,58.9,30.08,East,101,7.0,7.0,77,0.00,FEW,,0.00,WeatherDisplay:10.37,2013-10-09 23:53:00,
2013-10-10 01:58:00,66.4,59.0,30.08,ESE,114,7.0,7.0,77,0.00,FEW,,0.00,WeatherDisplay:10.37,2013-10-09 23:58:00,
2013-10-10 02:03:00,66.4,59.0,30.08,ESE,114,7.0,7.0,77,0.00,FEW,,0.00,WeatherDisplay:10.37,2013-10-10 00:03:00,
2013-10-10 02:08:00,66.3,58.9,30.08,ESE,116,5.8,5.8,77,0.00,FEW,,0.00,WeatherDisplay:10.37,2013-10-10 00:08:00,
2013-10-10 02:13:00,66.3,58.9,30.08,SE,127,5.0,5.0,77,0.00,FEW,,0.00,WeatherDisplay:10.37,2013-10-10 00:13:00,
2013-10-10 02:18:00,66.3,58.9,30.08,ESE,122,6.9,6.9,77,0.00,FEW,,0.00,WeatherDisplay:10.37,2013-10-10 00:18:00,
2013-10-10 02:23:00,66.4,59.0,30.08,ESE,105,4.6,4.6,77,0.00,FEW,,0.00,WeatherDisplay:10.37,2013-10-10 00:23:00,
2013-10-10 02:28:00,66.4,59.0,30.07,SE,127,5.8,5.8,77,0.00,FEW,,0.00,WeatherDisplay:10.37,2013-10-10 00:28:00,
2013-10-10 02:33:00,66.3,58.9,30.07,ESE,106,4.6,4.6,77,0.00,FEW,,0.00,WeatherDisplay:10.37,2013-10-10 00:33:00,
2013-10-10 02:38:00,66.3,59.2,30.07,ESE,114,4.6,4.6,78,0.00,FEW,,0.00,WeatherDisplay:10.37,2013-10-10 00:38:00,
2013-10-10 02:43:00,66.3,59.2,30.07,East,101,6.9,6.9,78,0.00,FEW,,0.00,WeatherDisplay:10.37,2013-10-10 00:43:00,
2013-10-10 02:48:00,66.3,59.2,30.07,ESE,114,5.0,5.0,78,0.00,FEW,,0.00,WeatherDisplay:10.37,2013-10-10 00:48:00,
2013-10-10 02:53:00,66.3,59.2,30.07,ESE,104,3.5,3.5,78,0.00,FEW,,0.00,WeatherDisplay:10.37,2013-10-10 00:53:00,
2013-10-10 02:58:00,66.2,59.1,30.07,ESE,104,4.6,4.6,78,0.00,FEW,,0.00,WeatherDisplay:10.37,2013-10-10 00:58:00,
2013-10-10 03:03:00,66.2,59.1,30.07,East,100,3.5,3.5,78,0.00,FEW,,0.00,WeatherDisplay:10.37,2013-10-10 01:03:00,
2013-10-10 03:08:00,66.1,59.0,30.06,East,83,4.6,4.6,78,0.00,FEW,,0.00,WeatherDisplay:10.37,2013-10-10 01:08:00,
2013-10-10 03:13:00,66.1,59.0,30.06,East,81,3.5,3.5,78,0.00,FEW,,0.00,WeatherDisplay:10.37,2013-10-10 01:13:00,
2013-10-10 03:18:00,66.1,59.0,30.06,ENE,73,3.5,3.5,78,0.00,FEW,,0.00,WeatherDisplay:10.37,2013-10-10 01:18:00,
2013-10-10 03:23:00,66.1,59.0,30.05,ENE,70,3.5,3.5,78,0.00,FEW,,0.00,WeatherDisplay:10.37,2013-10-10 01:23:00,
2013-10-10 03:28:00,66.1,59.0,30.05,ENE,69,3.5,3.5,78,0.00,FEW,,0.00,WeatherDisplay:10.37,2013-10-10 01:28:00,
2013-10-10 03:33:00,66.2,59.1,30.05,ENE,71,3.5,3.5,78,0.00,FEW,,0.00,WeatherDisplay:10.37,2013-10-10 01:33:00,
2013-10-10 03:38:00,66.2,59.1,30.05,ENE,73,4.0,4.0,78,0.00,FEW,,0.00,WeatherDisplay:10.37,2013-10-10 01:38:00,
2013-10-10 03:43:00,66.2,59.1,30.04,East,84,3.5,3.5,78,0.00,FEW,,0.00,WeatherDisplay:10.37,2013-10-10 01:43:00,
2013-10-10 03:48:00,66.1,59.0,30.04,ENE,74,4.6,4.6,78,0.00,FEW,,0.00,WeatherDisplay:10.37,2013-10-10 01:48:00,
2013-10-10 03:53:00,66.1,59.4,30.04,ENE,66,3.5,3.5,79,0.00,FEW,,0.00,WeatherDisplay:10.37,2013-10-10 01:53:00,
2013-10-10 03:58:00,66.0,59.3,30.04,ENE,65,3.5,3.5,79,0.00,FEW,,0.00,WeatherDisplay:10.37,2013-10-10 01:58:00,
2013-10-10 04:03:00,66.0,59.3,30.04,ENE,65,4.0,4.0,79,0.00,FEW,,0.00,WeatherDisplay:10.37,2013-10-10 02:03:00,
2013-10-10 04:08:00,66.0,59.3,30.03,East,79,5.8,5.8,79,0.00,FEW,,0.00,WeatherDisplay:10.37,2013-10-10 02:08:00,
2013-10-10 04:13:00,66.0,59.3,30.03,East,87,4.6,4.6,79,0.00,FEW,,0.00,WeatherDisplay:10.37,2013-10-10 02:13:00,
2013-10-10 04:18:00,66.0,59.3,30.03,East,87,3.5,3.5,79,0.00,FEW,,0.00,WeatherDisplay:10.37,2013-10-10 02:18:00,
2013-10-10 04:23:00,65.9,59.2,30.03,East,82,3.5,3.5,79,0.00,FEW,,0.00,WeatherDisplay:10.37,2013-10-10 02:23:00,
2013-10-10 04:28:00,65.8,59.1,30.03,East,93,4.6,4.6,79,0.00,FEW,,0.00,WeatherDisplay:10.37,2013-10-10 02:28:00,
2013-10-10 04:33:00,65.8,59.1,30.02,East,100,5.8,5.8,79,0.00,FEW,,0.00,WeatherDisplay:10.37,2013-10-10 02:33:00,
2013-10-10 04:38:00,65.9,59.2,30.02,East,94,4.6,4.6,79,0.00,FEW,,0.00,WeatherDisplay:10.37,2013-10-10 02:38:00,
2013-10-10 04:43:00,65.9,59.2,30.02,ENE,70,5.8,5.8,79,0.00,FEW,,0.00,WeatherDisplay:10.37,2013-10-10 02:43:00,
2013-10-10 04:48:00,65.8,59.1,30.01,ESE,103,5.8,5.8,79,0.00,FEW,,0.00,WeatherDisplay:10.37,2013-10-10 02:48:00,
2013-10-10 04:53:00,65.8,59.1,30.01,East,94,5.8,5.8,79,0.00,FEW,,0.00,WeatherDisplay:10.37,2013-10-10 02:53:00,
2013-10-10 04:58:00,65.7,59.0,30.01,East,87,5.0,5.0,79,0.00,FEW,,0.00,WeatherDisplay:10.37,2013-10-10 02:58:00,
2013-10-10 05:03:00,65.6,58.9,30.01,East,87,5.8,5.8,79,0.00,FEW,,0.00,WeatherDisplay:10.37,2013-10-10 03:03:00,
2013-10-10 05:08:00,65.5,58.8,30.01,ESE,112,8.1,8.1,79,0.00,FEW,,0.00,WeatherDisplay:10.37,2013-10-10 03:08:00,
2013-10-10 05:13:00,65.5,58.8,30.00,East,91,5.8,5.8,79,0.00,FEW,,0.00,WeatherDisplay:10.37,2013-10-10 03:13:00,
2013-10-10 05:18:00,65.5,59.2,30.00,ESE,103,6.9,6.9,80,0.00,FEW,,0.00,WeatherDisplay:10.37,2013-10-10 03:18:00,
2013-10-10 05:23:00,65.5,59.2,30.01,East,87,5.8,5.8,80,0.00,FEW,,0.00,WeatherDisplay:10.37,2013-10-10 03:23:00,
2013-10-10 05:28:00,65.5,59.2,30.01,East,97,5.8,5.8,80,0.00,FEW,,0.00,WeatherDisplay:10.37,2013-10-10 03:28:00,
2013-10-10 05:33:00,65.6,59.3,30.01,East,95,3.5,3.5,80,0.00,FEW,,0.00,WeatherDisplay:10.37,2013-10-10 03:33:00,
2013-10-10 05:38:00,65.7,59.4,30.01,East,97,4.6,4.6,80,0.00,FEW,,0.00,WeatherDisplay:10.37,2013-10-10 03:38:00,
2013-10-10 05:43:00,65.7,59.4,30.01,East,97,3.5,3.5,80,0.00,FEW,,0.00,WeatherDisplay:10.37,2013-10-10 03:43:00,
2013-10-10 05:48:00,65.7,59.4,30.01,ENE,70,3.5,3.5,80,0.00,FEW,,0.00,WeatherDisplay:10.37,2013-10-10 03:48:00,
2013-10-10 05:53:00,65.6,59.3,30.01,East,83,3.5,3.5,80,0.00,FEW,,0.00,WeatherDisplay:10.37,2013-10-10 03:53:00,
2013-10-10 05:58:00,65.7,59.4,30.01,ENE,64,3.5,3.5,80,0.00,FEW,,0.00,WeatherDisplay:10.37,2013-10-10 03:58:00,
2013-10-10 06:01:00,65.7,59.4,30.01,ENE,64,3.5,3.5,80,0.00,FEW,,0.00,WeatherDisplay:10.37,2013-10-10 04:01:00,
2013-10-10 06:02:00,65.7,59.4,30.01,ENE,63,3.5,3.5,80,0.00,FEW,,0.00,WeatherDisplay:10.37,2013-10-10 04:02:00,
2013-10-10 06:07:00,65.9,59.6,30.01,ENE,63,3.5,3.5,80,0.00,FEW,,0.00,WeatherDisplay:10.37,2013-10-10 04:07:00,
2013-10-10 06:12:00,65.9,59.2,30.01,ENE,64,3.5,3.5,79,0.00,FEW,,0.00,WeatherDisplay:10.37,2013-10-10 04:12:00,
2013-10-10 06:17:00,66.0,59.3,30.01,ENE,64,3.5,3.5,79,0.00,FEW,,0.00,WeatherDisplay:10.37,2013-10-10 04:17:00,
2013-10-10 06:22:00,66.0,59.3,30.01,ENE,62,3.5,3.5,79,0.00,FEW,,0.00,WeatherDisplay:10.37,2013-10-10 04:22:00,
2013-10-10 06:27:00,65.9,59.2,30.01,ENE,62,3.5,3.5,79,0.00,FEW,,0.00,WeatherDisplay:10.37,2013-10-10 04:27:00,
2013-10-10 06:32:00,65.9,59.2,30.01,ENE,62,4.0,4.0,79,0.00,FEW,,0.00,WeatherDisplay:10.37,2013-10-10 04:32:00,
2013-10-10 06:37:00,66.0,59.3,30.01,ENE,60,3.5,3.5,79,0.00,FEW,,0.00,WeatherDisplay:10.37,2013-10-10 04:37:00,
2013-10-10 06:42:00,66.0,59.3,30.01,ENE,63,4.0,4.0,79,0.00,FEW,,0.00,WeatherDisplay:10.37,2013-10-10 04:42:00,
2013-10-10 06:47:00,65.9,59.2,30.00,ENE,71,3.5,3.6,79,0.00,FEW,,0.00,WeatherDisplay:10.37,2013-10-10 04:47:00,
2013-10-10 06:52:00,65.9,59.2,30.00,East,91,4.6,4.6,79,0.00,FEW,,0.00,WeatherDisplay:10.37,2013-10-10 04:52:00,
2013-10-10 06:57:00,65.8,59.1,30.00,East,86,6.0,6.0,79,0.00,FEW,,0.00,WeatherDisplay:10.37,2013-10-10 04:57:00,
2013-10-10 07:02:00,65.7,59.4,30.00,East,83,5.0,5.0,80,0.00,FEW,,0.00,WeatherDisplay:10.37,2013-10-10 05:02:00,
2013-10-10 07:07:00,65.6,59.3,30.00,East,86,4.6,4.6,80,0.00,FEW,,0.00,WeatherDisplay:10.37,2013-10-10 05:07:00,
2013-10-10 07:12:00,65.5,59.2,30.00,East,93,4.6,4.6,80,0.00,FEW,,0.00,WeatherDisplay:10.37,2013-10-10 05:12:00,
2013-10-10 07:17:00,65.5,59.2,30.00,East,81,5.8,5.8,80,0.00,FEW,,0.00,WeatherDisplay:10.37,2013-10-10 05:17:00,
2013-10-10 07:22:00,65.6,59.3,30.00,East,94,5.8,5.8,80,0.00,FEW,,0.00,WeatherDisplay:10.37,2013-10-10 05:22:00,
2013-10-10 07:27:00,65.6,59.3,30.00,ESE,106,3.5,3.5,80,0.00,FEW,,0.00,WeatherDisplay:10.37,2013-10-10 05:27:00,
2013-10-10 07:32:00,65.6,59.3,30.00,East,81,5.8,5.8,80,0.00,FEW,,0.00,WeatherDisplay:10.37,2013-10-10 05:32:00,
2013-10-10 07:37:00,65.6,59.3,30.00,ESE,110,6.0,6.0,80,0.00,FEW,,0.00,WeatherDisplay:10.37,2013-10-10 05:37:00,
2013-10-10 07:42:00,65.6,59.3,30.00,ESE,109,4.0,4.0,80,0.00,FEW,,0.00,WeatherDisplay:10.37,2013-10-10 05:42:00,
2013-10-10 07:47:00,65.7,59.4,30.00,ESE,120,5.0,5.0,80,0.00,FEW,,0.00,WeatherDisplay:10.37,2013-10-10 05:47:00,
2013-10-10 07:52:00,65.7,59.4,30.00,ESE,102,5.0,5.0,80,0.00,FEW,,0.00,WeatherDisplay:10.37,2013-10-10 05:52:00,
2013-10-10 07:57:00,65.7,59.4,30.00,East,89,5.0,5.0,80,0.00,FEW,,0.00,WeatherDisplay:10.37,2013-10-10 05:57:00,
2013-10-10 08:02:00,65.7,59.4,30.00,East,93,5.0,5.0,80,0.00,FEW,,0.00,WeatherDisplay:10.37,2013-10-10 06:02:00,
2013-10-10 08:07:00,65.7,59.4,30.00,East,83,5.0,5.0,80,0.00,FEW,,0.00,WeatherDisplay:10.37,2013-10-10 06:07:00,
2013-10-10 08:12:00,65.8,59.5,30.00,ENE,58,4.6,4.6,80,0.00,FEW,,0.00,WeatherDisplay:10.37,2013-10-10 06:12:00,
2013-10-10 08:17:00,65.8,59.5,30.00,ENE,77,5.8,5.8,80,0.00,FEW,,0.00,WeatherDisplay:10.37,2013-10-10 06:17:00,
2013-10-10 08:22:00,66.0,59.7,30.00,ENE,77,4.6,4.6,80,0.00,FEW,,0.00,WeatherDisplay:10.37,2013-10-10 06:22:00,
2013-10-10 08:27:00,66.3,59.9,30.00,ENE,70,4.6,4.6,80,0.00,FEW,,0.00,WeatherDisplay:10.37,2013-10-10 06:27:00,
2013-10-10 08:32:00,66.5,60.1,30.00,East,79,5.0,5.0,80,0.00,FEW,,0.00,WeatherDisplay:10.37,2013-10-10 06:32:00,
2013-10-10 08:37:00,66.8,60.4,30.00,East,92,3.5,3.5,80,0.00,FEW,,0.00,WeatherDisplay:10.37,2013-10-10 06:37:00,
2013-10-10 08:42:00,67.2,60.5,30.00,East,90,4.6,4.6,79,0.00,FEW,,0.00,WeatherDisplay:10.37,2013-10-10 06:42:00,
2013-10-10 08:47:00,67.5,60.4,30.00,East,86,4.6,4.6,78,0.00,BKN,,0.00,WeatherDisplay:10.37,2013-10-10 06:47:00,
2013-10-10 08:52:00,67.8,60.7,30.00,ESE,112,4.6,4.6,78,0.00,BKN,,0.00,WeatherDisplay:10.37,2013-10-10 06:52:00,
2013-10-10 08:57:00,68.2,60.7,30.00,East,97,3.5,3.5,77,0.00,BKN,,0.00,WeatherDisplay:10.37,2013-10-10 06:57:00,
2013-10-10 09:02:00,68.5,61.0,30.00,East,87,3.5,3.5,77,0.00,BKN,,0.00,WeatherDisplay:10.37,2013-10-10 07:02:00,
2013-10-10 09:07:00,68.7,60.8,30.00,ESE,109,3.5,3.5,76,0.00,BKN,,0.00,WeatherDisplay:10.37,2013-10-10 07:07:00,
2013-10-10 09:12:00,68.9,61.0,30.00,ESE,103,4.6,4.6,76,0.00,BKN,,0.00,WeatherDisplay:10.37,2013-10-10 07:12:00,
2013-10-10 09:17:00,69.1,61.2,30.00,ESE,109,3.5,3.5,76,0.00,BKN,,0.00,WeatherDisplay:10.37,2013-10-10 07:17:00,
2013-10-10 09:22:00,69.0,60.7,30.00,ESE,110,3.5,3.5,75,0.00,BKN,,0.00,WeatherDisplay:10.37,2013-10-10 07:22:00,
2013-10-10 09:27:00,69.4,61.1,30.00,East,81,3.5,3.5,75,0.00,BKN,,0.00,WeatherDisplay:10.37,2013-10-10 07:27:00,
2013-10-10 09:32:00,69.8,61.1,30.00,SE,125,3.0,3.0,74,0.00,BKN,,0.00,WeatherDisplay:10.37,2013-10-10 07:32:00,
2013-10-10 09:37:00,69.7,61.0,30.00,ESE,121,4.0,4.0,74,0.00,BKN,,0.00,WeatherDisplay:10.37,2013-10-10 07:37:00,
2013-10-10 09:42:00,70.0,61.3,30.00,SE,127,6.0,6.0,74,0.00,BKN,,0.00,WeatherDisplay:10.37,2013-10-10 07:42:00,
2013-10-10 09:47:00,69.8,60.8,30.00,SE,124,3.5,3.5,73,0.00,BKN,,0.00,WeatherDisplay:10.37,2013-10-10 07:47:00,
2013-10-10 09:52:00,69.5,60.8,30.00,ESE,102,4.6,4.6,74,0.00,BKN,,0.00,WeatherDisplay:10.37,2013-10-10 07:52:00,
2013-10-10 09:57:00,69.3,60.7,30.00,ESE,109,3.5,3.5,74,0.00,BKN,,0.00,WeatherDisplay:10.37,2013-10-10 07:57:00,
2013-10-10 10:02:00,69.0,60.7,30.00,SSE,149,4.6,4.6,75,0.00,BKN,,0.00,WeatherDisplay:10.37,2013-10-10 08:02:00,
2013-10-10 10:07:00,69.0,61.1,30.00,SE,131,4.6,4.6,76,0.00,BKN,,0.00,WeatherDisplay:10.37,2013-10-10 08:07:00,
2013-10-10 10:12:00,69.1,60.8,30.00,ESE,110,4.0,4.0,75,0.00,BKN,,0.00,WeatherDisplay:10.37,2013-10-10 08:12:00,
2013-10-10 10:17:00,69.0,60.7,30.00,SE,131,3.5,3.5,75,0.00,BKN,,0.00,WeatherDisplay:10.37,2013-10-10 08:17:00,
2013-10-10 10:22:00,68.8,60.2,30.00,SSE,163,3.5,3.5,74,0.00,BKN,,0.00,WeatherDisplay:10.37,2013-10-10 08:22:00,
2013-10-10 10:27:00,68.8,60.2,30.00,SE,145,3.5,3.5,74,0.00,BKN,,0.00,WeatherDisplay:10.37,2013-10-10 08:27:00,
2013-10-10 10:32:00,69.0,60.7,30.00,SE,143,1.1,1.1,75,0.00,BKN,,0.00,WeatherDisplay:10.37,2013-10-10 08:32:00,
2013-10-10 10:37:00,69.2,60.6,30.00,SSE,153,3.5,3.5,74,0.00,BKN,,0.00,WeatherDisplay:10.37,2013-10-10 08:37:00,
2013-10-10 10:42:00,69.2,60.6,30.00,SSE,148,4.0,4.0,74,0.00,BKN,,0.00,WeatherDisplay:10.37,2013-10-10 08:42:00,
2013-10-10 10:47:00,69.3,60.3,30.00,SSE,167,3.5,3.5,73,0.00,BKN,,0.00,WeatherDisplay:10.37,2013-10-10 08:47:00,
2013-10-10 10:52:00,69.5,60.1,30.00,SSW,207,5.8,5.8,72,0.00,BKN,,0.00,WeatherDisplay:10.37,2013-10-10 08:52:00,
2013-10-10 10:57:00,69.6,59.4,30.00,SW,225,5.8,5.8,70,0.00,BKN,,0.00,WeatherDisplay:10.37,2013-10-10 08:57:00,
2013-10-10 11:02:00,69.8,60.0,30.00,South,183,5.8,5.8,71,0.00,BKN,,0.00,WeatherDisplay:10.37,2013-10-10 09:02:00,
2013-10-10 11:07:00,70.0,60.6,30.00,SSE,168,6.9,6.9,72,0.00,BKN,,0.00,WeatherDisplay:10.37,2013-10-10 09:07:00,
2013-10-10 11:12:00,70.3,60.1,30.00,South,177,8.1,8.1,70,0.00,BKN,,0.00,WeatherDisplay:10.37,2013-10-10 09:12:00,
2013-10-10 11:17:00,70.2,59.6,30.00,South,189,5.8,5.8,69,0.00,BKN,,0.00,WeatherDisplay:10.37,2013-10-10 09:17:00,
2013-10-10 11:22:00,70.1,60.3,30.00,SSE,150,6.9,6.9,71,0.00,BKN,,0.00,WeatherDisplay:10.37,2013-10-10 09:22:00,
2013-10-10 11:27:00,70.1,59.9,30.00,South,187,4.6,4.6,70,0.00,BKN,,0.00,WeatherDisplay:10.37,2013-10-10 09:27:00,
2013-10-10 11:32:00,70.0,59.8,30.00,SSE,154,6.9,6.9,70,0.00,BKN,,0.00,WeatherDisplay:10.37,2013-10-10 09:32:00,
2013-10-10 11:37:00,70.0,60.2,30.00,ESE,116,6.9,6.9,71,0.00,BKN,,0.00,WeatherDisplay:10.37,2013-10-10 09:37:00,
2013-10-10 11:42:00,70.5,60.6,29.99,SSW,205,4.6,4.6,71,0.00,BKN,,0.00,WeatherDisplay:10.37,2013-10-10 09:42:00,
2013-10-10 11:47:00,71.0,60.3,29.99,SSE,154,6.9,6.9,69,0.00,BKN,,0.00,WeatherDisplay:10.37,2013-10-10 09:47:00,
2013-10-10 11:52:00,70.8,60.5,29.99,SSE,157,6.9,6.9,70,0.00,BKN,,0.00,WeatherDisplay:10.37,2013-10-10 09:52:00,
2013-10-10 11:57:00,70.5,60.2,29.99,SSE,161,6.9,6.9,70,0.00,BKN,,0.00,WeatherDisplay:10.37,2013-10-10 09:57:00,
2013-10-10 12:02:00,70.4,60.5,29.99,SE,131,4.6,4.6,71,0.00,BKN,,0.00,WeatherDisplay:10.37,2013-10-10 10:02:00,
2013-10-10 12:07:00,70.5,60.6,29.99,SSE,161,5.8,5.8,71,0.00,BKN,,0.00,WeatherDisplay:10.37,2013-10-10 10:07:00,
2013-10-10 12:12:00,70.4,60.5,29.99,SE,141,8.0,8.0,71,0.00,BKN,,0.00,WeatherDisplay:10.37,2013-10-10 10:12:00,
2013-10-10 12:17:00,70.3,60.4,29.99,SSE,166,6.9,6.9,71,0.00,BKN,,0.00,WeatherDisplay:10.37,2013-10-10 10:17:00,
2013-10-10 12:22:00,70.2,60.4,29.99,SSE,154,8.1,8.1,71,0.00,BKN,,0.00,WeatherDisplay:10.37,2013-10-10 10:22:00,
2013-10-10 12:27:00,70.4,60.5,29.99,ESE,123,5.8,5.8,71,0.00,BKN,,0.00,WeatherDisplay:10.37,2013-10-10 10:27:00,
2013-10-10 12:32:00,70.5,60.6,29.99,SSE,162,5.8,5.8,71,0.00,BKN,,0.00,WeatherDisplay:10.37,2013-10-10 10:32:00,
2013-10-10 12:37:00,70.2,60.4,29.99,SSE,147,6.9,6.9,71,0.00,BKN,,0.00,WeatherDisplay:10.37,2013-10-10 10:37:00,
2013-10-10 12:42:00,70.4,60.5,29.99,SW,236,8.1,8.1,71,0.00,BKN,,0.00,WeatherDisplay:10.37,2013-10-10 10:42:00,
2013-10-10 12:47:00,71.0,60.3,29.99,SSW,208,9.2,9.2,69,0.00,BKN,,0.00,WeatherDisplay:10.37,2013-10-10 10:47:00,
2013-10-10 12:52:00,71.0,60.7,29.98,SSE,164,10.4,10.4,70,0.00,BKN,,0.00,WeatherDisplay:10.37,2013-10-10 10:52:00,
2013-10-10 12:57:00,70.5,60.2,29.98,South,183,9.2,9.2,70,0.00,BKN,,0.00,WeatherDisplay:10.37,2013-10-10 10:57:00,
2013-10-10 13:02:00,69.8,60.0,29.98,South,183,9.2,9.2,71,0.00,BKN,,0.00,WeatherDisplay:10.37,2013-10-10 11:02:00,
2013-10-10 13:07:00,69.5,60.1,29.98,SSW,194,9.2,9.2,72,0.00,BKN,,0.00,WeatherDisplay:10.37,2013-10-10 11:07:00,
2013-10-10 13:12:00,69.3,60.3,29.98,SSW,200,6.9,6.9,73,0.00,BKN,,0.00,WeatherDisplay:10.37,2013-10-10 11:12:00,
2013-10-10 13:17:00,69.2,60.9,29.98,SW,220,0.0,0.0,75,0.01,RA,,0.01,WeatherDisplay:10.37,2013-10-10 11:17:00,
2013-10-10 13:22:00,69.0,60.4,29.98,SSW,204,6.9,6.9,74,0.01,RA,,0.01,WeatherDisplay:10.37,2013-10-10 11:22:00,
2013-10-10 13:27:00,68.7,60.1,29.98,SSE,162,4.6,4.6,74,0.01,BKN,,0.01,WeatherDisplay:10.37,2013-10-10 11:27:00,
2013-10-10 13:32:00,68.8,60.2,29.97,South,179,10.4,10.4,74,0.01,FEW,,0.01,WeatherDisplay:10.37,2013-10-10 11:32:00,
2013-10-10 13:37:00,69.0,60.7,29.97,SSW,205,4.6,4.6,75,0.01,FEW,,0.01,WeatherDisplay:10.37,2013-10-10 11:37:00,
2013-10-10 13:42:00,69.3,60.3,29.97,WSW,241,10.4,10.4,73,0.01,FEW,,0.01,WeatherDisplay:10.37,2013-10-10 11:42:00,
2013-10-10 13:47:00,69.3,59.9,29.96,SW,231,13.8,13.8,72,0.01,FEW,,0.01,WeatherDisplay:10.37,2013-10-10 11:47:00,
2013-10-10 13:52:00,69.3,60.3,29.96,WSW,245,17.3,17.3,73,0.01,FEW,,0.01,WeatherDisplay:10.37,2013-10-10 11:52:00,
2013-10-10 13:57:00,69.1,59.7,29.96,SSW,199,11.5,11.5,72,0.01,FEW,,0.01,WeatherDisplay:10.37,2013-10-10 11:57:00,
2013-10-10 14:02:00,69.0,59.6,29.96,West,264,10.4,10.4,72,0.01,FEW,,0.01,WeatherDisplay:10.37,2013-10-10 12:02:00,
2013-10-10 14:07:00,69.1,59.7,29.96,SW,228,9.0,9.0,72,0.01,FEW,,0.01,WeatherDisplay:10.37,2013-10-10 12:07:00,
2013-10-10 14:12:00,69.3,60.3,29.95,SW,225,12.7,12.7,73,0.01,FEW,,0.01,WeatherDisplay:10.37,2013-10-10 12:12:00,
2013-10-10 14:17:00,69.3,60.7,29.95,WSW,240,16.1,16.1,74,0.00,FEW,,0.01,WeatherDisplay:10.37,2013-10-10 12:17:00,
2013-10-10 14:22:00,69.1,61.6,29.95,WSW,241,10.4,10.4,77,0.00,FEW,,0.01,WeatherDisplay:10.37,2013-10-10 12:22:00,
2013-10-10 14:27:00,69.2,61.7,29.95,WSW,245,12.7,12.7,77,0.00,FEW,,0.01,WeatherDisplay:10.37,2013-10-10 12:27:00,
2013-10-10 14:32:00,69.3,62.1,29.94,SW,231,12.0,12.0,78,0.00,FEW,,0.01,WeatherDisplay:10.37,2013-10-10 12:32:00,
2013-10-10 14:37:00,69.8,61.9,29.94,WSW,253,11.5,11.5,76,0.00,FEW,,0.01,WeatherDisplay:10.37,2013-10-10 12:37:00,
2013-10-10 14:42:00,70.0,60.9,29.94,SW,234,13.8,13.8,73,0.00,FEW,,0.01,WeatherDisplay:10.37,2013-10-10 12:42:00,
2013-10-10 14:47:00,70.7,61.6,29.94,SSW,197,11.5,11.5,73,0.00,FEW,,0.01,WeatherDisplay:10.37,2013-10-10 12:47:00,
2013-10-10 14:52:00,71.7,61.8,29.94,SSW,208,12.7,12.7,71,0.00,FEW,,0.01,WeatherDisplay:10.37,2013-10-10 12:52:00,
2013-10-10 14:57:00,71.6,61.3,29.94,WSW,247,13.8,13.8,70,0.00,FEW,,0.01,WeatherDisplay:10.37,2013-10-10 12:57:00,
2013-10-10 15:02:00,70.8,59.3,29.93,WSW,240,11.5,11.5,67,0.00,FEW,,0.01,WeatherDisplay:10.37,2013-10-10 13:02:00,
2013-10-10 15:07:00,70.8,60.5,29.93,WSW,243,13.8,13.8,70,0.00,FEW,,0.01,WeatherDisplay:10.37,2013-10-10 13:07:00,
2013-10-10 15:12:00,71.2,60.9,29.93,West,270,12.7,12.7,70,0.00,FEW,,0.01,WeatherDisplay:10.37,2013-10-10 13:12:00,
2013-10-10 15:17:00,71.3,60.6,29.93,SW,221,9.2,9.2,69,0.00,FEW,,0.01,WeatherDisplay:10.37,2013-10-10 13:17:00,
2013-10-10 15:22:00,70.4,60.5,29.93,WSW,249,11.5,11.5,71,0.00,FEW,,0.01,WeatherDisplay:10.37,2013-10-10 13:22:00,
2013-10-10 15:27:00,70.5,60.6,29.93,WSW,237,16.1,16.1,71,0.00,FEW,,0.01,WeatherDisplay:10.37,2013-10-10 13:27:00,
2013-10-10 15:32:00,71.6,60.9,29.93,SW,218,16.1,16.1,69,0.00,FEW,,0.01,WeatherDisplay:10.37,2013-10-10 13:32:00,
2013-10-10 15:37:00,71.7,60.2,29.92,SW,228,13.0,13.0,67,0.00,FEW,,0.01,WeatherDisplay:10.37,2013-10-10 13:37:00,
2013-10-10 15:42:00,72.3,60.7,29.92,SW,223,15.0,15.0,67,0.00,FEW,,0.01,WeatherDisplay:10.37,2013-10-10 13:42:00,
2013-10-10 15:47:00,72.2,59.8,29.92,SSW,198,11.5,11.5,65,0.00,FEW,,0.01,WeatherDisplay:10.37,2013-10-10 13:47:00,
2013-10-10 15:52:00,72.6,60.2,29.92,WSW,237,10.4,10.4,65,0.00,FEW,,0.01,WeatherDisplay:10.37,2013-10-10 13:52:00,
2013-10-10 15:57:00,73.1,60.2,29.92,SW,220,11.5,11.5,64,0.00,FEW,,0.01,WeatherDisplay:10.37,2013-10-10 13:57:00,
2013-10-10 16:02:00,72.5,60.1,29.91,WSW,244,15.0,15.0,65,0.00,FEW,,0.01,WeatherDisplay:10.37,2013-10-10 14:02:00,
2013-10-10 16:07:00,72.6,60.2,29.91,South,191,11.5,11.5,65,0.00,FEW,,0.01,WeatherDisplay:10.37,2013-10-10 14:07:00,
2013-10-10 16:12:00,72.9,60.9,29.91,SW,224,12.7,12.7,66,0.00,FEW,,0.01,WeatherDisplay:10.37,2013-10-10 14:12:00,
2013-10-10 16:17:00,72.3,60.7,29.91,SW,231,16.1,16.1,67,0.00,FEW,,0.01,WeatherDisplay:10.37,2013-10-10 14:17:00,
2013-10-10 16:22:00,72.1,60.1,29.90,SW,230,18.4,18.4,66,0.00,FEW,,0.01,WeatherDisplay:10.37,2013-10-10 14:22:00,
2013-10-10 16:27:00,72.3,61.1,29.91,WSW,245,12.7,12.7,68,0.00,FEW,,0.01,WeatherDisplay:10.37,2013-10-10 14:27:00,
2013-10-10 16:32:00,72.4,60.8,29.90,SW,223,13.8,13.8,67,0.00,FEW,,0.01,WeatherDisplay:10.37,2013-10-10 14:32:00,
2013-10-10 16:37:00,72.8,60.8,29.90,SW,223,16.1,16.1,66,0.00,FEW,,0.01,WeatherDisplay:10.37,2013-10-10 14:37:00,
2013-10-10 16:42:00,72.4,60.8,29.90,SW,222,12.7,12.7,67,0.00,FEW,,0.01,WeatherDisplay:10.37,2013-10-10 14:42:00,
2013-10-10 16:47:00,72.2,61.0,29.90,SW,224,6.9,6.9,68,0.00,FEW,,0.01,WeatherDisplay:10.37,2013-10-10 14:47:00,
2013-10-10 16:52:00,72.1,61.4,29.90,SW,235,11.5,11.5,69,0.00,FEW,,0.01,WeatherDisplay:10.37,2013-10-10 14:52:00,
2013-10-10 16:57:00,71.6,60.5,29.90,WSW,249,17.3,17.3,68,0.00,FEW,,0.01,WeatherDisplay:10.37,2013-10-10 14:57:00,
2013-10-10 17:02:00,71.9,60.3,29.90,West,272,15.0,15.0,67,0.00,FEW,,0.01,WeatherDisplay:10.37,2013-10-10 15:02:00,
2013-10-10 17:07:00,71.3,60.6,29.90,West,269,13.8,13.8,69,0.00,FEW,,0.01,WeatherDisplay:10.37,2013-10-10 15:07:00,
2013-10-10 17:12:00,71.7,60.6,29.90,WNW,282,12.7,12.7,68,0.00,FEW,,0.01,WeatherDisplay:10.37,2013-10-10 15:12:00,
2013-10-10 17:17:00,71.9,60.3,29.90,SW,233,11.5,11.5,67,0.00,FEW,,0.01,WeatherDisplay:10.37,2013-10-10 15:17:00,
2013-10-10 17:22:00,71.2,60.5,29.89,SW,231,16.1,16.1,69,0.00,FEW,,0.01,WeatherDisplay:10.37,2013-10-10 15:22:00,
2013-10-10 17:27:00,70.9,60.6,29.89,WSW,247,12.0,12.0,70,0.00,FEW,,0.01,WeatherDisplay:10.37,2013-10-10 15:27:00,
2013-10-10 17:32:00,71.2,60.9,29.89,West,269,11.5,11.5,70,0.00,FEW,,0.01,WeatherDisplay:10.37,2013-10-10 15:32:00,
2013-10-10 17:37:00,71.5,60.8,29.89,SW,227,18.4,18.4,69,0.00,FEW,,0.01,WeatherDisplay:10.37,2013-10-10 15:37:00,
2013-10-10 17:42:00,70.7,60.8,29.89,SW,214,16.1,16.1,71,0.00,FEW,,0.01,WeatherDisplay:10.37,2013-10-10 15:42:00,
2013-10-10 17:47:00,70.8,61.3,29.89,SW,229,16.1,16.1,72,0.00,FEW,,0.01,WeatherDisplay:10.37,2013-10-10 15:47:00,
2013-10-10 17:52:00,70.7,60.8,29.89,WSW,257,16.1,16.1,71,0.00,FEW,,0.01,WeatherDisplay:10.37,2013-10-10 15:52:00,
2013-10-10 17:57:00,70.7,60.8,29.89,SW,220,18.4,18.4,71,0.00,FEW,,0.01,WeatherDisplay:10.37,2013-10-10 15:57:00,
2013-10-10 18:02:00,70.9,61.4,29.88,SW,222,16.1,16.1,72,0.00,FEW,,0.01,WeatherDisplay:10.37,2013-10-10 16:02:00,
2013-10-10 18:07:00,71.0,61.1,29.88,WSW,242,19.6,19.6,71,0.00,FEW,,0.01,WeatherDisplay:10.37,2013-10-10 16:07:00,
2013-10-10 18:12:00,70.9,61.4,29.88,SW,226,13.8,13.8,72,0.00,FEW,,0.01,WeatherDisplay:10.37,2013-10-10 16:12:00,
2013-10-10 18:17:00,70.4,61.3,29.88,West,262,15.0,15.0,73,0.00,FEW,,0.01,WeatherDisplay:10.37,2013-10-10 16:17:00,
2013-10-10 18:22:00,70.2,61.1,29.88,WSW,244,18.4,18.4,73,0.00,FEW,,0.01,WeatherDisplay:10.37,2013-10-10 16:22:00,
2013-10-10 18:27:00,70.2,61.5,29.88,SW,223,19.6,19.6,74,0.00,FEW,,0.01,WeatherDisplay:10.37,2013-10-10 16:27:00,
2013-10-10 18:32:00,70.2,61.5,29.88,SW,229,18.4,18.4,74,0.00,FEW,,0.01,WeatherDisplay:10.37,2013-10-10 16:32:00,
2013-10-10 18:37:00,70.2,60.7,29.88,West,270,16.1,16.1,72,0.00,FEW,,0.01,WeatherDisplay:10.37,2013-10-10 16:37:00,
2013-10-10 18:42:00,70.2,61.1,29.88,WSW,240,18.4,18.4,73,0.00,FEW,,0.01,WeatherDisplay:10.37,2013-10-10 16:42:00,
2013-10-10 18:47:00,70.0,61.3,29.88,SW,232,16.1,16.1,74,0.00,FEW,,0.01,WeatherDisplay:10.37,2013-10-10 16:47:00,
2013-10-10 18:52:00,70.1,61.4,29.88,West,261,13.8,13.8,74,0.00,FEW,,0.01,WeatherDisplay:10.37,2013-10-10 16:52:00,
2013-10-10 18:57:00,69.8,61.1,29.88,WSW,237,17.3,17.3,74,0.00,FEW,,0.01,WeatherDisplay:10.37,2013-10-10 16:57:00,
2013-10-10 19:02:00,69.6,61.3,29.88,WSW,239,16.1,16.1,75,0.00,FEW,,0.01,WeatherDisplay:10.37,2013-10-10 17:02:00,
2013-10-10 19:07:00,69.4,61.5,29.88,West,263,11.5,11.5,76,0.00,FEW,,0.01,WeatherDisplay:10.37,2013-10-10 17:07:00,
2013-10-10 19:12:00,69.3,61.4,29.88,WSW,243,11.5,11.5,76,0.00,FEW,,0.01,WeatherDisplay:10.37,2013-10-10 17:12:00,
2013-10-10 19:17:00,69.1,61.2,29.88,WSW,245,10.4,10.4,76,0.00,FEW,,0.01,WeatherDisplay:10.37,2013-10-10 17:17:00,
2013-10-10 19:22:00,69.0,61.5,29.88,WSW,252,10.4,10.4,77,0.00,FEW,,0.01,WeatherDisplay:10.37,2013-10-10 17:22:00,
2013-10-10 19:27:00,68.9,61.4,29.88,West,280,9.2,9.2,77,0.00,FEW,,0.01,WeatherDisplay:10.37,2013-10-10 17:27:00,
2013-10-10 19:32:00,68.7,61.2,29.88,West,269,6.9,6.9,77,0.00,FEW,,0.01,WeatherDisplay:10.37,2013-10-10 17:32:00,
2013-10-10 19:37:00,68.6,61.1,29.88,WNW,291,11.5,11.5,77,0.00,FEW,,0.01,WeatherDisplay:10.37,2013-10-10 17:37:00,
2013-10-10 19:42:00,68.5,61.0,29.88,WSW,246,11.5,11.5,77,0.00,FEW,,0.01,WeatherDisplay:10.37,2013-10-10 17:42:00,
2013-10-10 19:47:00,68.4,60.9,29.88,WSW,245,9.2,9.2,77,0.00,FEW,,0.01,WeatherDisplay:10.37,2013-10-10 17:47:00,
2013-10-10 19:52:00,68.3,60.8,29.88,West,261,9.2,9.2,77,0.00,FEW,,0.01,WeatherDisplay:10.37,2013-10-10 17:52:00,
2013-10-10 19:57:00,68.3,60.8,29.88,WSW,251,10.4,10.4,77,0.00,FEW,,0.01,WeatherDisplay:10.37,2013-10-10 17:57:00,
2013-10-10 20:02:00,68.3,60.8,29.89,WNW,284,11.5,11.5,77,0.00,FEW,,0.01,WeatherDisplay:10.37,2013-10-10 18:02:00,
2013-10-10 20:07:00,68.2,61.1,29.89,WNW,288,11.5,11.5,78,0.00,FEW,,0.01,WeatherDisplay:10.37,2013-10-10 18:07:00,
2013-10-10 20:12:00,68.1,61.0,29.89,WNW,291,11.5,11.5,78,0.00,FEW,,0.01,WeatherDisplay:10.37,2013-10-10 18:12:00,
2013-10-10 20:17:00,68.1,61.0,29.89,West,280,11.5,11.5,78,0.00,FEW,,0.01,WeatherDisplay:10.37,2013-10-10 18:17:00,
2013-10-10 20:22:00,68.1,61.0,29.89,West,266,10.4,10.4,78,0.00,FEW,,0.01,WeatherDisplay:10.37,2013-10-10 18:22:00,
2013-10-10 20:27:00,68.1,60.6,29.89,WNW,302,11.5,11.5,77,0.00,FEW,,0.01,WeatherDisplay:10.37,2013-10-10 18:27:00,
2013-10-10 20:32:00,68.1,60.6,29.89,West,268,11.5,11.5,77,0.00,FEW,,0.01,WeatherDisplay:10.37,2013-10-10 18:32:00,
2013-10-10 20:37:00,67.9,60.4,29.89,NW,316,11.5,11.5,77,0.00,FEW,,0.01,WeatherDisplay:10.37,2013-10-10 18:37:00,
2013-10-10 20:42:00,67.8,60.3,29.89,WSW,243,11.5,11.5,77,0.00,FEW,,0.01,WeatherDisplay:10.37,2013-10-10 18:42:00,
2013-10-10 20:47:00,67.8,60.3,29.89,WSW,253,12.7,12.7,77,0.00,FEW,,0.01,WeatherDisplay:10.37,2013-10-10 18:47:00,
2013-10-10 20:52:00,67.9,60.4,29.89,WNW,285,11.5,11.5,77,0.00,FEW,,0.01,WeatherDisplay:10.37,2013-10-10 18:52:00,
2013-10-10 20:57:00,68.0,60.2,29.89,West,264,11.5,11.5,76,0.00,FEW,,0.01,WeatherDisplay:10.37,2013-10-10 18:57:00,
2013-10-10 21:02:00,68.0,60.5,29.89,West,266,13.0,13.0,77,0.00,FEW,,0.01,WeatherDisplay:10.37,2013-10-10 19:02:00,
2013-10-10 21:07:00,67.9,60.4,29.89,WSW,247,12.7,12.7,77,0.00,FEW,,0.01,WeatherDisplay:10.37,2013-10-10 19:07:00,
2013-10-10 21:12:00,67.8,60.3,29.89,West,276,12.7,12.7,77,0.00,FEW,,0.01,WeatherDisplay:10.37,2013-10-10 19:12:00,
2013-10-10 21:17:00,67.7,60.2,29.89,West,270,11.5,11.5,77,0.00,FEW,,0.01,WeatherDisplay:10.37,2013-10-10 19:17:00,
2013-10-10 21:22:00,67.7,60.6,29.89,WNW,287,11.5,11.5,78,0.00,FEW,,0.01,WeatherDisplay:10.37,2013-10-10 19:22:00,
2013-10-10 21:27:00,67.6,60.5,29.89,West,271,11.5,11.5,78,0.00,FEW,,0.01,WeatherDisplay:10.37,2013-10-10 19:27:00,
2013-10-10 21:32:00,67.5,60.4,29.88,West,274,12.7,12.7,78,0.00,FEW,,0.01,WeatherDisplay:10.37,2013-10-10 19:32:00,
2013-10-10 21:37:00,67.6,60.5,29.88,West,259,11.5,11.5,78,0.00,FEW,,0.01,WeatherDisplay:10.37,2013-10-10 19:37:00,
2013-10-10 21:42:00,67.7,60.6,29.88,WNW,294,11.5,11.5,78,0.00,FEW,,0.01,WeatherDisplay:10.37,2013-10-10 19:42:00,
2013-10-10 21:47:00,67.7,60.6,29.88,West,260,11.5,11.5,78,0.00,FEW,,0.01,WeatherDisplay:10.37,2013-10-10 19:47:00,
2013-10-10 21:52:00,67.8,60.7,29.89,WSW,254,11.5,11.5,78,0.00,FEW,,0.01,WeatherDisplay:10.37,2013-10-10 19:52:00,
2013-10-10 21:57:00,67.8,60.7,29.89,West,277,11.5,11.5,78,0.00,FEW,,0.01,WeatherDisplay:10.37,2013-10-10 19:57:00,
2013-10-10 22:02:00,67.9,60.8,29.89,WNW,295,11.5,11.5,78,0.00,FEW,,0.01,WeatherDisplay:10.37,2013-10-10 20:02:00,
2013-10-10 22:07:00,67.9,60.8,29.89,West,269,11.5,11.5,78,0.00,FEW,,0.01,WeatherDisplay:10.37,2013-10-10 20:07:00,
2013-10-10 22:12:00,67.9,60.8,29.89,WSW,253,11.5,11.5,78,0.00,FEW,,0.01,WeatherDisplay:10.37,2013-10-10 20:12:00,
2013-10-10 22:17:00,68.0,61.2,29.89,WSW,243,10.4,10.4,79,0.00,FEW,,0.01,WeatherDisplay:10.37,2013-10-10 20:17:00,
2013-10-10 22:22:00,67.8,61.0,29.89,WSW,252,11.5,11.5,79,0.00,FEW,,0.01,WeatherDisplay:10.37,2013-10-10 20:22:00,
2013-10-10 22:27:00,67.5,60.8,29.89,West,261,11.5,11.5,79,0.00,FEW,,0.01,WeatherDisplay:10.37,2013-10-10 20:27:00,
2013-10-10 22:31:00,67.4,61.0,29.89,West,265,10.4,10.4,80,0.00,FEW,,0.01,WeatherDisplay:10.37,2013-10-10 20:31:00,
2013-10-10 22:36:00,67.5,61.1,29.89,WSW,248,10.4,10.4,80,0.00,FEW,,0.01,WeatherDisplay:10.37,2013-10-10 20:36:00,
2013-10-10 22:41:00,67.6,60.9,29.89,West,273,11.5,11.5,79,0.00,FEW,,0.01,WeatherDisplay:10.37,2013-10-10 20:41:00,
2013-10-10 22:46:00,67.6,61.2,29.90,West,272,9.2,9.2,80,0.00,FEW,,0.01,WeatherDisplay:10.37,2013-10-10 20:46:00,
2013-10-10 22:51:00,67.6,61.2,29.90,WNW,300,11.5,11.5,80,0.00,FEW,,0.01,WeatherDisplay:10.37,2013-10-10 20:51:00,
2013-10-10 22:56:00,67.6,61.2,29.90,WSW,256,12.7,12.7,80,0.00,FEW,,0.01,WeatherDisplay:10.37,2013-10-10 20:56:00,
2013-10-10 23:01:00,67.6,60.9,29.90,WNW,289,11.0,11.0,79,0.00,FEW,,0.01,WeatherDisplay:10.37,2013-10-10 21:01:00,
2013-10-10 23:06:00,67.6,61.2,29.90,West,269,11.5,11.5,80,0.00,FEW,,0.01,WeatherDisplay:10.37,2013-10-10 21:06:00,
2013-10-10 23:11:00,67.5,61.1,29.90,West,261,10.4,10.4,80,0.00,FEW,,0.01,WeatherDisplay:10.37,2013-10-10 21:11:00,
2013-10-10 23:16:00,67.5,61.1,29.91,WSW,254,11.5,11.5,80,0.00,FEW,,0.01,WeatherDisplay:10.37,2013-10-10 21:16:00,
2013-10-10 23:21:00,67.4,61.0,29.90,WNW,292,10.4,10.4,80,0.00,FEW,,0.01,WeatherDisplay:10.37,2013-10-10 21:21:00,
2013-10-10 23:26:00,67.3,61.3,29.91,WNW,297,11.5,11.5,81,0.00,FEW,,0.01,WeatherDisplay:10.37,2013-10-10 21:26:00,
2013-10-10 23:31:00,67.4,61.4,29.91,West,269,11.5,11.5,81,0.00,FEW,,0.01,WeatherDisplay:10.37,2013-10-10 21:31:00,
2013-10-10 23:36:00,67.4,61.0,29.91,West,266,10.4,10.4,80,0.00,FEW,,0.01,WeatherDisplay:10.37,2013-10-10 21:36:00,
2013-10-10 23:41:00,67.4,61.0,29.91,WNW,287,11.5,11.5,80,0.00,FEW,,0.01,WeatherDisplay:10.37,2013-10-10 21:41:00,
2013-10-10 23:46:00,67.6,61.2,29.91,West,272,11.5,11.5,80,0.00,FEW,,0.01,WeatherDisplay:10.37,2013-10-10 21:46:00,
2013-10-10 23:51:00,67.7,61.3,29.91,WNW,283,10.4,10.4,80,0.00,FEW,,0.01,WeatherDisplay:10.37,2013-10-10 21:51:00,
2013-10-10 23:56:00,67.6,61.2,29.91,WNW,303,9.2,9.2,80,0.00,FEW,,0.01,WeatherDisplay:10.37,2013-10-10 21:56:00,